Other Public Products
Issued by NWS Grand Forks, ND

Home | Current Version | Previous Version | Graphics & Text | Print | Product List | Glossary On
Versions: 1 2 3 4 5 6 7 8 9 10 11 12 13 14 15 16 17 18 19 20 21 22 23 24 25 26 27 28 29 30 31 32 33 34 35 36 37 38 39 40 41 42 43 44 45 46 47 48 49 50
227
FPUS83 KFGF 300931
OPUFGF
PRAIRIE TO PINES WEATHER ROUNDUP
NATIONAL WEATHER SERVICE EASTERN NORTH DAKOTA/GRAND FORKS ND
400 AM CDT THU MAR 30 2017

 **SATELLITE DATA USED TO AUGMENT SKY COVER AT AUTOMATED STATIONS**
 *****  WEATHER ACROSS EASTERN NORTH DAKOTA  *****

CITY           SKY/WX    TMP DP  RH WIND       PRES   REMARKS
GRAND FORKS    CLOUDY    40  36  86 S12       29.96F
GRAND FORKS AF CLOUDY    41  35  80 S16       29.96F
GRAND CITY NWS NOT AVBL
BUXTON         NOT AVBL
DEVILS LAKE    CLOUDY    41  34  76 S18       29.90F
FARGO          FAIR      36  34  92 S8        30.00F
WAHPETON ARPT  FAIR      32  32 100 E6        29.99F
$$

 *****  WEATHER ACROSS CENTRAL AND WESTERN NORTH DAKOTA  *****

CITY           SKY/WX    TMP DP  RH WIND       PRES   REMARKS
JAMESTOWN      FAIR      35  33  92 S12       29.94F
BISMARCK       FAIR      43  34  70 SE9       29.88F
MINOT          FAIR      47  38  71 S17G30    29.79F
MINOT AFB      FAIR      45  39  80 SW17      29.78F
GARRISON         N/A     42  35  76 SW10      29.82F
WILLISTON      CLOUDY    43  38  82 CALM      29.77F
DICKINSON      CLOUDY    39  36  89 S10       29.78F
HETTINGER      MOCLDY    39  35  86 SE9       29.83F
$$

 *****  OTHER OBSERVATIONS NORTHEAST NORTH DAKOTA  *****

CITY           SKY/WX    TMP DP  RH WIND       PRES   REMARKS
WALHALLA       NOT AVBL
LANGDON        PTSUNNY   39  39 100 S26G32    29.88F
CAVALIER       FAIR      43  36  75 SW16G23   29.93F
GRAFTON        FAIR      41  37  87 SW12      29.98S
CANDO          NOT AVBL
FORT TOTTEN      N/A     41  35  80 S17       29.95S
ROLLA          FAIR      36  37 100 S14       29.83F
RUGBY          NOT AVBL
 ***** THE ABOVE OBSERVATIONS ARE NON NWS ARE NOT QUALITY
        CONTROLLED AND MAY MIS-REPORT RAIN FOR SNOW...
$$

 *****  OTHER OBSERVATIONS SOUTHEAST NORTH DAKOTA *****

CITY           SKY/WX    TMP DP  RH WIND       PRES   REMARKS
COOPERSTOWN    FAIR      36  36 100 S10       29.96S
VALLEY CITY    FAIR      36  36 100 S13       29.97F
OAKES          NOT AVBL
GWINNER        SUNNY     32  32 100 MISG      29.98F
SHEYENNE NWR     N/A     31  31  99 SW5       29.95S
BUFFALO        NOT AVBL
WYNDMERE         N/A     30  30 100 E1          N/A
 ***** THE ABOVE OBSERVATIONS ARE NON NWS ARE NOT QUALITY
       CONTROLLED AND MAY MIS-REPORT RAIN FOR SNOW...
$$

  *****  WEATHER ACROSS NORTHERN MINNESOTA  *****

CITY           SKY/WX    TMP DP  RH WIND       PRES   REMARKS
FLAG ISLAND    MOCLDY    34  30  86 S10       29.99F
WARROAD        FAIR      37  34  87 CALM      30.00F
ROSEAU         CLOUDY    39  36  87 S5        29.99F
HALLOCK        CLOUDY    41  37  87 S10       29.96F
THF RVR FALLS  FAIR      37  35  92 S10       29.99F
HALSTAD          N/A     33  32  95 S8          N/A
FOSSTON        FAIR      30  28  93 S3        30.01F
BAUDETTE       FAIR      33  29  85 SE7       30.01F
WASKISH        FAIR      34  30  86 CALM      30.02F
CROOKSTON      FAIR      37  36  93 S10       29.99F
$$
  *****  WEATHER ACROSS CENTRAL AND WEST MINNESOTA  *****

CITY           SKY/WX    TMP DP  RH WIND       PRES   REMARKS
BEMIDJI        FAIR      28  27  95 E3        30.01F
PARK RAPIDS    FAIR      32  27  81 SE7       30.02F
WADENA         CLOUDY    34  30  86 CALM      30.01F
DETROIT LAKES  FOG       32  32 100 SE6       30.01F VSB 1/2
MOORHEAD       FAIR      34  32  93 SE5       30.01F
FERGUS FALLS   MOCLDY    36  36 100 E5        30.04F FOG
ELBOW LAKE     CLOUDY    37  36  95 NE5       30.00F
MORRIS MN      CLOUDY    39  37  93 E6        29.98F
STAPLES        FAIR      30  28  93 CALM      30.02F
WHEATON        CLOUDY    36  34  93 CALM      30.02F
$$
  *****  WEATHER ELSEWHERE ACROSS MINNESOTA  *****

CITY           SKY/WX    TMP DP  RH WIND       PRES   REMARKS
DULUTH         CLOUDY    30  29  96 E10       30.06F WCI  21
INTRNTL FALLS  FAIR      28  24  85 SE5       30.04F WCI  23
ELY            FAIR      25  23  93 CALM      30.07F
CLOQUET        CLOUDY    30  30 100 E8        30.06F WCI  23
BRAINERD       CLOUDY    29  28  96 NE3       30.04F
HIBBING        FAIR      23  23 100 CALM      30.06F
ALEXANDRIA     CLOUDY    38  37  97 E8        30.01F
SAINT CLOUD    CLOUDY    36  32  85 NE6       30.01F
MINNEAPOLIS    CLOUDY    40  36  86 NE12      30.00F
$$

  *****  WEATHER ACROSS SOUTH DAKOTA  *****

CITY           SKY/WX    TMP DP  RH WIND       PRES   REMARKS
SIOUX FALLS    CLOUDY    39  38  96 NE14      29.90F
BROOKINGS      CLOUDY    38  35  89 E9        29.93F
WATERTOWN      CLOUDY    38  36  92 E9        29.95F
HURON          CLOUDY    40  37  89 E6        29.95F
SISSETON         N/A     39  38  96 S6        29.98F
ABERDEEN       CLOUDY    37  33  85 SE7       29.97F
MITCHELL       CLOUDY    40  36  86 NE7       29.94F
PIERRE         FAIR      31  30  96 SE3       29.90F FOG
MOBRIDGE       FAIR      35  30  82 SE8       29.90F
RAPID CITY     FAIR      35  33  92 SE7       29.84F
$$

  *****  SOME WEATHER IN NEARBY STATES *****

CITY           SKY/WX    TMP DP  RH WIND       PRES   REMARKS
GLASGOW MT     CLOUDY    44  32  62 SE10      29.70F
GREAT FALLS MT FAIR      44  32  62 SW15      29.72F
CHEYENNE WY    FAIR      35  32  88 SW13      29.87F
SCOTTSBLUFF NE FAIR      34  30  85 NE3       29.86F
OMAHA NE       CLOUDY    43  38  82 NE13      29.71F
DES MOINES IA  CLOUDY    44  40  85 E16G23    29.70F
DAVENPORT IA   CLOUDY    42  40  92 E21G29    29.76F
CHICAGO IL     RAIN      42  39  89 E15G24    29.87F FOG
EAU CLAIRE WI  CLOUDY    36  34  92 NE14      29.98F
LA CROSSE WI   LGT RAIN  39  35  86 E8        29.95F
$$

  *****  SOME NATIONAL WEATHER *****

CITY           SKY/WX    TMP DP  RH WIND       PRES   REMARKS
LA GUARDIA NY  FAIR      42  23  46 N7        30.23R
RALEIGH NC     CLOUDY    55  48  77 SE6       30.14R
ATLANTA GA     MOCLDY    64  59  83 SW5       29.96S
NEW ORLEANS LA MOCLDY    73  69  87 S7        29.87R
OKLAHOMA CITY  CLOUDY    45  39  79 W17       29.75S
ALBUQUERQUE NM FAIR      43  37  79 SE7       30.05F
SALT LAKE CITY MOCLDY    51  35  54 S6        29.93F
LOS ANGELES CA FAIR      61  57  87 CALM      29.99F
BOISE ID       CLOUDY    47  45  93 CALM      29.89F
SEATTLE WA     CLOUDY    45  40  82 SW9       30.04R
$$

*** WEATHER ACROSS MANITOBA...SASKATCHEWAN AND ONTARIO ***
                ***ONTARIO***

CITY           SKY/WX    TMP DP  RH WIND       PRES   REMARKS
GERALDTON      CLEAR     21  18  86 E3        30.19F
THUNDER BAY    CLOUDY    27  27 100 NE5       30.17F WCI  21
SIOUX LOOKOUT  CLOUDY    34  25  69 S8        30.04F
TORONTO        MOCLDY    36  21  55 E9G21     30.25F
BIG TROUT LK   LGT RAIN  34  25  69 S14       30.01F WCI  24
PICKLE LAKE    NOT AVBL
DRYDEN         CLOUDY    36  25  64 S14       30.02F
KENORA         CLOUDY    37  30  75 S8        29.99
$$
                *** MANITOBA***

CITY           SKY/WX    TMP DP  RH WIND       PRES   REMARKS
BRANDON        MOCLDY    32  32 100 E3        29.79S
DAUPHIN        CLEAR     34  32  93 W6        29.78S
ISLAND LAKE    DRIZZLE   34  34 100 SE8       29.84F
PILOT MOUND      N/A     39  36  87 S21         N/A
THE PAS        FOG       32  30  93 CALM      29.82S VSB 1
THOMPSON       LGT SNOW  32  30  93 NE5       29.88F
WINNIPEG       MOCLDY    43  37  81 S22G33    29.86F
LYNN LAKE      MOCLDY    30  25  80 NE3       29.87F
CHURCHILL      MOCLDY     9   7  92 E9        30.07F WCI  -5
GILLAM         CLOUDY    30  21  69 E5        29.94F
$$
                ***SASKATCHEWAN***

CITY           SKY/WX    TMP DP  RH WIND       PRES   REMARKS
ESTEVAN        CLOUDY    39  34  81 SW6       29.76F
KINDERSLEY     CLOUDY    39  36  87 SE14      29.68F
LLOYDMINSTER   FOG       30  30 100 E9        29.73S VSB 1/4 WCI  22
PRINCE ALBERT  CLOUDY    36  32  87 E5        29.79F
REGINA         CLOUDY    41  34  75 E5        29.73F
YORKTON        FOG       27  27 100 N6        29.76F VS



USA.gov is the U.S. government's official web portal to all federal, state and local government web resources and services.